Change the Weather History Date:

Sunday, August 5, 2012

  Actual Average Record
Temperature  
Mean Temperature 81 °F 78 °F  
Max Temperature 85 °F 90 °F 105 °F (1918)
Min Temperature 76 °F 67 °F 49 °F (1912)
Degree Days  
Heating Degree Days 0 0  
Month to date heating degree days 0 0  
Since 1 June heating degree days 7 5  
Since 1 July heating degree days 0 0  
Cooling Degree Days 16 13  
Month to date cooling degree days 96 66  
Year to date cooling degree days 1429 947  
Since 1 June cooling degree days 1050 794  
Growing Degree Days 30 (Base 50)    
Moisture  
Dew Point 74 °F    
Average Humidity 78    
Maximum Humidity 82    
Minimum Humidity 74    
Precipitation  
Precipitation 0.05 in 0.09 in 3.53 in (1975)
Month to date precipitation 1.18 0.48  
Year to date precipitation 25.22 30.71  
Snow  
Snow 0.00 in 0.00 in 0.00 in ()
Month to date snowfall 0.0 0.0  
Since 1 June snowfall 0.0 0.0  
Since 1 July snowfall 0.0 0.0  
Snow Depth 0.00 in    
Sea Level Pressure  
Sea Level Pressure 30.08 in    
Wind  
Wind Speed 7 mph (South)    
Max Wind Speed 15 mph    
Max Gust Speed 18 mph    
Visibility 10 miles    
Events Rain , Thunderstorm    
T = Trace of Precipitation, MM = Missing Value Source: NWS Daily Summary

Daily Weather History Graph

Daily Weather History Graph

Search for Another Location

Airport or City:

Trip Planner

Search our weather history database for the weather conditions in past years. The results will help you decide how hot, cold, wet, or windy it might be!

Date:

Astronomy

Aug. 05, 2012 Rise Set
Actual Time 5:54 AM CDT 7:48 PM CDT
Civil Twilight 5:26 AM CDT 8:16 PM CDT
Nautical Twilight 4:51 AM CDT 8:50 PM CDT
Astronomical Twilight 4:15 AM CDT 9:27 PM CDT
Moon 9:34 PM CDT (8/5) 9:35 AM CDT (8/5)
Length of Visible Light 14h 49m
Length of Day
13h 53m
Waning Gibbous, 86% of the Moon is Illuminated
Aug 5
Waning Gibbous
Aug 9
Last Quarter
Aug 17
New
Aug 24
First Quarter
Aug 31
Full

Hourly Weather History & Observations

Time (CDT) Temp. Heat Index Dew Point Humidity Pressure Visibility Wind Dir Wind Speed Gust Speed Precip Events Conditions
12:53 AM 79.0 °F - 71.1 °F 77% 30.06 in 10.0 mi South 9.2 mph - N/A   Clear
1:53 AM 80.1 °F 83.8 °F 72.0 °F 76% 30.05 in 10.0 mi South 10.4 mph - N/A   Clear
2:53 AM 80.1 °F 83.8 °F 72.0 °F 76% 30.06 in 10.0 mi SSW 8.1 mph - N/A   Mostly Cloudy
3:03 AM 80.6 °F 84.6 °F 71.6 °F 74% 30.08 in 10.0 mi SSW 10.4 mph - 0.00 in Rain , Thunderstorm Light Thunderstorms and Rain
3:25 AM 78.8 °F - 73.4 °F 83% 30.07 in 10.0 mi SSW 8.1 mph - 0.02 in Rain Light Rain
3:53 AM 79.0 °F - 73.0 °F 82% 30.05 in 10.0 mi SSW 8.1 mph - 0.02 in Rain Light Rain
4:53 AM 78.1 °F - 72.0 °F 81% 30.06 in 10.0 mi SSW 10.4 mph - 0.00 in   Overcast
5:32 AM 77.0 °F - 71.6 °F 83% 30.08 in 10.0 mi South 10.4 mph - 0.01 in Rain , Thunderstorm Light Thunderstorms and Rain
5:53 AM 77.0 °F - 73.0 °F 88% 30.06 in 10.0 mi South 9.2 mph - 0.01 in Thunderstorm Mostly Cloudy
6:27 AM 77.0 °F - 73.4 °F 89% 30.09 in 10.0 mi SSW 4.6 mph - N/A   Partly Cloudy
6:53 AM 78.1 °F - 73.0 °F 84% 30.07 in 10.0 mi South 10.4 mph - N/A   Partly Cloudy
7:53 AM 78.1 °F - 72.0 °F 81% 30.08 in 10.0 mi South 8.1 mph - N/A   Scattered Clouds
8:53 AM 79.0 °F - 72.0 °F 79% 30.10 in 10.0 mi South 8.1 mph - N/A   Mostly Cloudy
9:53 AM 82.0 °F 87.4 °F 73.0 °F 74% 30.11 in 10.0 mi SW 10.4 mph - N/A   Mostly Cloudy
11:19 AM 82.4 °F 88.2 °F 73.4 °F 74% 30.12 in 10.0 mi SW 9.2 mph - N/A   Overcast
11:53 AM 84.9 °F 93.3 °F 75.0 °F 72% 30.09 in 10.0 mi SW 6.9 mph - N/A   Overcast
12:53 PM 82.9 °F 90.2 °F 75.0 °F 77% 30.09 in 10.0 mi South 12.7 mph - N/A   Overcast
1:05 PM 82.4 °F 88.2 °F 73.4 °F 74% 30.10 in 10.0 mi South 10.4 mph - N/A   Scattered Clouds
1:53 PM 82.9 °F 90.2 °F 75.0 °F 77% 30.08 in 10.0 mi South 10.4 mph - N/A   Partly Cloudy
2:53 PM 82.9 °F 90.2 °F 75.0 °F 77% 30.07 in 10.0 mi South 10.4 mph - N/A   Clear
3:53 PM 82.0 °F 88.6 °F 75.0 °F 79% 30.06 in 10.0 mi South 6.9 mph - N/A   Clear
4:24 PM 82.4 °F 88.2 °F 73.4 °F 74% 30.07 in 10.0 mi South 10.4 mph - N/A Thunderstorm Partly Cloudy
4:39 PM 82.4 °F 88.2 °F 73.4 °F 74% 30.08 in 10.0 mi SSW 10.4 mph - N/A   Partly Cloudy
4:53 PM 82.0 °F 87.9 °F 73.9 °F 76% 30.06 in 10.0 mi South 9.2 mph - N/A Thunderstorm Partly Cloudy
5:18 PM 80.6 °F 85.4 °F 73.4 °F 79% 30.07 in 10.0 mi South 8.1 mph - 0.00 in   Scattered Clouds
5:53 PM 80.1 °F 85.1 °F 75.0 °F 85% 30.02 in 10.0 mi SE 3.5 mph - 0.00 in Rain Light Rain
6:06 PM 80.6 °F 86.2 °F 75.2 °F 84% 30.03 in 10.0 mi ESE 4.6 mph - 0.00 in Thunderstorm Scattered Clouds
6:21 PM 80.6 °F 86.2 °F 75.2 °F 84% 30.06 in 10.0 mi South 3.5 mph - 0.00 in   Scattered Clouds
6:53 PM 80.1 °F 85.1 °F 75.0 °F 85% 30.06 in 10.0 mi ESE 5.8 mph - 0.00 in   Overcast
7:05 PM 78.8 °F - 75.2 °F 89% 30.08 in 9.0 mi ESE 3.5 mph - N/A   Overcast
7:53 PM 79.0 °F - 75.0 °F 88% 30.07 in 7.0 mi ESE 3.5 mph - 0.01 in Rain Light Rain
8:10 PM 78.8 °F - 75.2 °F 89% 30.11 in 8.0 mi Calm Calm - 0.00 in Thunderstorm Mostly Cloudy
8:28 PM 78.8 °F - 75.2 °F 89% 30.11 in 7.0 mi SE 5.8 mph - 0.00 in Rain Light Rain
8:53 PM 78.1 °F - 75.0 °F 90% 30.09 in 7.0 mi ESE 3.5 mph - 0.00 in   Scattered Clouds
9:28 PM 77.0 °F - 73.4 °F 89% 30.13 in 6.0 mi West 5.8 mph - 0.01 in   Overcast
9:50 PM 77.0 °F - 73.4 °F 89% 30.13 in 10.0 mi Calm Calm - 0.01 in Thunderstorm Mostly Cloudy
9:53 PM 77.0 °F - 73.0 °F 88% 30.11 in 10.0 mi WSW 4.6 mph - 0.01 in Thunderstorm Mostly Cloudy
10:04 PM 77.0 °F - 73.4 °F 89% 30.12 in 10.0 mi Calm Calm - 0.00 in Rain Light Rain
10:19 PM 77.0 °F - 73.4 °F 89% 30.12 in 10.0 mi Calm Calm - 0.00 in Thunderstorm Mostly Cloudy
10:34 PM 77.0 °F - 73.4 °F 89% 30.12 in 10.0 mi WSW 3.5 mph - 0.00 in   Mostly Cloudy
10:42 PM 77.0 °F - 73.4 °F 89% 30.12 in 10.0 mi Calm Calm - 0.00 in   Mostly Cloudy
10:53 PM 77.0 °F - 73.0 °F 88% 30.11 in 10.0 mi West 4.6 mph - 0.00 in   Overcast
11:53 PM 77.0 °F - 72.0 °F 84% 30.10 in 10.0 mi Calm Calm - N/A   Mostly Cloudy